Regional Weather Roundup
Issued by NWS

Home | Current Version | Previous Version | Text Only | Print | Product List | Glossary On
Versions: 1 2 3 4 5 6 7 8 9 10 11 12 13 14 15 16 17 18 19 20 21 22 23 24 25 26 27 28 29 30 31 32 33 34 35 36 37 38 39 40 41 42 43 44 45 46 47 48 49 50
000
ASUS42 KFFC 211103
RWRGA
WEATHER ROUNDUP FOR GEORGIA
NATIONAL WEATHER SERVICE PEACHTREE CITY GA
700 AM EDT THU SEP 21 2017

NOTE: "FAIR" INDICATES FEW OR NO CLOUDS BELOW 12,000 FEET WITH NO
SIGNIFICANT WEATHER AND/OR OBSTRUCTIONS TO VISIBILITY.

* = USE WITH CAUTION. THE STATIONS MARKED WITH AN ASTERISK MAY NOT
REPORT WEATHER SUCH AS PRECIPITATION, FOG, OR THUNDER AND ARE NOT
QUALITY CONTROLLED BY NWS.

THE REMARK "TC" DENOTES TEMPERATURE READING IN DEGREES CELSIUS.

GAZ001>058-211200-
NORTH GEORGIA

CITY           SKY/WX    TMP DP  RH WIND       PRES   REMARKS
ATLANTA        PTCLDY    70  67  90 NW5       30.07R
ATHENS         CLEAR     65  65 100 CALM      30.06R
CHAMBLEE       CLEAR     66  65  96 N5        30.07R
PEACHTREE CITY CLEAR     64  63  96 CALM      30.07R
ROME           PTCLDY    67  67 100 NE3       30.07R FOG
WEST ATLANTA   CLEAR     67  67 100 NE3       30.07R
GAINESVILLE    CLEAR     67  65  93 N3        30.10R
CARTERSVILLE   CLOUDY    64  64 100 CALM      30.08R


CITY           SKY/WX    TMP DP  RH WIND       PRES   REMARKS
DALTON*        PTCLDY    63  63 100 CALM      30.10R FOG
LAWRENCEVILLE* CLEAR     66  64  94 CALM      30.07
MARIETTA       PTCLDY    68  65  93 CALM      30.08R
KENNESAW*      CLEAR     66  66 100 CALM      30.09
CANTON*        CLEAR     64  64 100 CALM      30.10R
$$

GAZ059>098-102>109-211200-
CENTRAL GEORGIA

CITY           SKY/WX    TMP DP  RH WIND       PRES   REMARKS
AUGUSTA-BUSH   CLEAR     68  67  96 CALM      30.03R FOG
AUGUSTA-DANIEL CLEAR     73  70  90 CALM      30.05R
COLUMBUS       CLEAR     73  67  81 CALM      30.03R
MACON          PTCLDY    67  66  97 CALM      30.03R
ROBINS AFB     CLEAR     69  68  98 CALM      30.02R


CITY           SKY/WX    TMP DP  RH WIND       PRES   REMARKS
LAGRANGE*      CLEAR     66  66  98 CALM      30.06R FOG
SYLVANIA*      CLEAR     68  68 100 CALM      30.04R FOG
$$

GAZ099>101-110>166-211200-
SOUTH GEORGIA

CITY           SKY/WX    TMP DP  RH WIND       PRES   REMARKS
SAVANNAH       PTCLDY    71  70  96 CALM      30.03R
VALDOSTA       PTCLDY    68  68 100 CALM      30.01R FOG
ALMA           PTCLDY    70  68  93 CALM      30.02R FOG
ST SIMONS      PTCLDY    75  74  96 CALM      30.01R
FT STEWART     PTCLDY    69  67  94 CALM      30.00R
ALBANY         PTCLDY    71  70  96 CALM      30.03R
HUNTER AFB     DRIZZLE   72  72 100 CALM      30.00R FOG
MOODY AFB      PTCLDY    70  69  97 CALM      30.01R
BRUNSWICK      FOG       70  68  94 CALM      30.03R VSB 1/2


CITY           SKY/WX    TMP DP  RH WIND       PRES   REMARKS
BAINBRIDGE*    PTCLDY    73  73 100 CALM      30.01R
MOULTRIE*      PTCLDY    70  70 100 CALM      30.03R
VIDALIA*       CLEAR     70  70 100 CALM      30.04R
WAYCROSS*      PTCLDY    70  67  91 CALM      30.02R FOG
DOUGLAS*       PTCLDY    70  68  94 CALM      30.03R
$$




USA.gov is the U.S. government's official web portal to all federal, state and local government web resources and services.